| time (UTC) | temp F | wind direction | speed MPH | gust MPH | rain 1hr in | rain 24hr in | rain mn in | humidity % | barometer mb |
| 20260905083018 | 55 | 333 | 3.0 | 14.0 | 0.00 | 0.26 | 0.24 | 69 | 1006.3 |
| 20260905082516 | 55 | 273 | 4.0 | 15.0 | 0.00 | 0.26 | 0.24 | 69 | 1006.2 |
| 20260905082016 | 56 | 311 | 6.0 | 17.0 | 0.00 | 0.26 | 0.24 | 68 | 1006.0 |
| 20260905081616 | 56 | 296 | 10.0 | 22.0 | 0.00 | 0.26 | 0.24 | 68 | 1006.0 |
| 20260905081026 | 56 | 266 | 11.0 | 22.0 | 0.00 | 0.26 | 0.24 | 68 | 1006.1 |
| 20260905080527 | 56 | 288 | 9.0 | 17.0 | 0.00 | 0.26 | 0.24 | 68 | 1006.0 |
| 20260905080025 | 56 | 296 | 3.0 | 18.0 | 0.00 | 0.26 | 0.24 | 68 | 1005.9 |
| 20260905075524 | 56 | 300 | 9.0 | 18.0 | 0.00 | 0.26 | 0.24 | 68 | 1005.8 |
| 20260905075028 | 55 | 269 | 10.0 | 20.0 | 0.00 | 0.26 | 0.24 | 69 | 1005.6 |
| 20260905074523 | 55 | 298 | 5.0 | 13.0 | 0.00 | 0.26 | 0.24 | 71 | 1005.6 |
| 20260905074023 | 55 | 268 | 1.0 | 5.0 | 0.00 | 0.26 | 0.24 | 71 | 1005.5 |
| 20260905073522 | 55 | 257 | 0.0 | 7.0 | 0.00 | 0.26 | 0.24 | 70 | 1005.4 |
| 20260905073022 | 55 | 257 | 2.0 | 11.0 | 0.00 | 0.26 | 0.24 | 70 | 1005.3 |
| 20260905072527 | 55 | 281 | 5.0 | 11.0 | 0.00 | 0.26 | 0.24 | 70 | 1005.4 |
| 20260905072022 | 56 | 302 | 6.0 | 11.0 | 0.00 | 0.26 | 0.24 | 69 | 1005.4 |
| 20260905071622 | 57 | 278 | 3.0 | 15.0 | 0.01 | 0.26 | 0.24 | 66 | 1005.4 |
| 20260905071018 | 57 | 231 | 5.0 | 15.0 | 0.01 | 0.26 | 0.24 | 65 | 1005.4 |
| 20260905070517 | 58 | 279 | 7.0 | 21.0 | 0.01 | 0.26 | 0.24 | 63 | 1005.4 |
| 20260905070017 | 58 | 253 | 9.0 | 21.0 | 0.01 | 0.26 | 0.24 | 62 | 1005.4 |
| 20260905065517 | 59 | 296 | 11.0 | 20.0 | 0.01 | 0.26 | 0.24 | 63 | 1005.1 |
| 20260905065017 | 59 | 243 | 11.0 | 23.0 | 0.01 | 0.26 | 0.24 | 62 | 1005.0 |
| 20260905064517 | 60 | 257 | 12.0 | 23.0 | 0.01 | 0.26 | 0.24 | 61 | 1004.7 |
| 20260905064017 | 60 | 302 | 10.0 | 20.0 | 0.02 | 0.26 | 0.24 | 61 | 1004.6 |
| 20260905063516 | 61 | 327 | 12.0 | 22.0 | 0.02 | 0.26 | 0.24 | 61 | 1004.4 |
| 20260905063017 | 61 | 258 | 8.0 | 27.0 | 0.02 | 0.26 | 0.24 | 63 | 1004.4 |
| 20260905062516 | 61 | 275 | 10.0 | 27.0 | 0.03 | 0.26 | 0.24 | 64 | 1004.2 |
| 20260905062016 | 60 | 324 | 7.0 | 23.0 | 0.03 | 0.26 | 0.24 | 66 | 1004.2 |
| 20260905061617 | 59 | 355 | 11.0 | 21.0 | 0.02 | 0.25 | 0.24 | 68 | 1004.0 |
| 20260905061020 | 59 | 259 | 9.0 | 21.0 | 0.02 | 0.25 | 0.24 | 69 | 1004.1 |
| 20260905060519 | 59 | 319 | 9.0 | 15.0 | 0.02 | 0.25 | 0.24 | 71 | 1003.8 |
| 20260905060032 | 58 | 290 | 7.0 | 13.0 | 0.02 | 0.25 | 0.24 | 73 | 1003.6 |
| 20260905055519 | 58 | 273 | 8.0 | 14.0 | 0.02 | 0.25 | 0.24 | 73 | 1003.6 |
| 20260905055019 | 58 | 278 | 6.0 | 15.0 | 0.02 | 0.25 | 0.24 | 74 | 1003.7 |
| 20260905054523 | 59 | 290 | 8.0 | 19.0 | 0.02 | 0.25 | 0.24 | 72 | 1003.7 |
| 20260905054019 | 59 | 290 | 9.0 | 21.0 | 0.02 | 0.25 | 0.24 | 69 | 1004.0 |
| 20260905053522 | 60 | 276 | 13.0 | 21.0 | 0.02 | 0.24 | 0.23 | 64 | 1004.0 |
| 20260905053019 | 62 | 315 | 13.0 | 26.0 | 0.01 | 0.24 | 0.22 | 62 | 1003.9 |
| 20260905052519 | 63 | 295 | 11.0 | 26.0 | 0.00 | 0.23 | 0.21 | 56 | 1003.8 |
| 20260905052019 | 64 | 302 | 9.0 | 18.0 | 0.00 | 0.23 | 0.21 | 56 | 1003.7 |
| 20260905051618 | 64 | 273 | 8.0 | 23.0 | 0.00 | 0.23 | 0.21 | 56 | 1003.7 |
| 20260905051011 | 64 | 242 | 10.0 | 23.0 | 0.00 | 0.23 | 0.21 | 56 | 1003.7 |
| 20260905050511 | 63 | 300 | 10.0 | 19.0 | 0.00 | 0.23 | 0.21 | 57 | 1003.6 |
| 20260905050011 | 63 | 264 | 10.0 | 20.0 | 0.00 | 0.23 | 0.21 | 58 | 1003.5 |
| 20260905045511 | 63 | 296 | 11.0 | 22.0 | 0.00 | 0.23 | 0.21 | 57 | 1003.7 |
| 20260905045011 | 64 | 302 | 11.0 | 22.0 | 0.00 | 0.23 | 0.21 | 54 | 1003.7 |
| 20260905044511 | 65 | 292 | 10.0 | 21.0 | 0.00 | 0.23 | 0.21 | 52 | 1003.3 |
| 20260905044010 | 65 | 5 | 12.0 | 21.0 | 0.00 | 0.23 | 0.21 | 50 | 1003.2 |
| 20260905043513 | 66 | 272 | 11.0 | 21.0 | 0.00 | 0.23 | 0.21 | 48 | 1002.9 |
| 20260905043014 | 66 | 288 | 8.0 | 19.0 | 0.00 | 0.23 | 0.21 | 47 | 1003.0 |
| 20260905042510 | 67 | 255 | 9.0 | 19.0 | 0.00 | 0.23 | 0.21 | 45 | 1002.9 |
| 20260905042010 | 67 | 298 | 11.0 | 19.0 | 0.00 | 0.23 | 0.21 | 45 | 1003.0 |
| 20260905041611 | 67 | 270 | 8.0 | 18.0 | 0.00 | 0.23 | 0.21 | 47 | 1003.0 |
| 20260905041009 | 67 | 265 | 8.0 | 18.0 | 0.00 | 0.23 | 0.21 | 47 | 1003.0 |
| 20260905040508 | 67 | 278 | 10.0 | 16.0 | 0.00 | 0.23 | 0.21 | 48 | 1002.7 |
| 20260905040008 | 66 | 278 | 6.0 | 20.0 | 0.00 | 0.23 | 0.21 | 49 | 1003.0 |
| 20260905035506 | 66 | 343 | 9.0 | 20.0 | 0.00 | 0.23 | 0.21 | 49 | 1003.1 |
| 20260905035005 | 66 | 269 | 8.0 | 22.0 | 0.00 | 0.23 | 0.21 | 49 | 1003.2 |
| 20260905034506 | 66 | 271 | 8.0 | 19.0 | 0.00 | 0.23 | 0.21 | 48 | 1003.1 |
| 20260905034005 | 65 | 309 | 9.0 | 19.0 | 0.00 | 0.23 | 0.21 | 49 | 1003.1 |
| 20260905033504 | 65 | 248 | 9.0 | 25.0 | 0.00 | 0.23 | 0.21 | 50 | 1003.2 |
| 20260905033005 | 65 | 300 | 12.0 | 25.0 | 0.00 | 0.23 | 0.21 | 48 | 1003.3 |
| 20260905032505 | 65 | 302 | 10.0 | 19.0 | 0.00 | 0.23 | 0.21 | 52 | 1003.4 |
| 20260905032003 | 65 | 250 | 6.0 | 19.0 | 0.00 | 0.23 | 0.21 | 54 | 1003.3 |
| 20260905031616 | 65 | 311 | 10.0 | 24.0 | 0.00 | 0.23 | 0.21 | 53 | 1003.4 |
| 20260905031011 | 65 | 269 | 10.0 | 24.0 | 0.00 | 0.23 | 0.21 | 52 | 1003.4 |
| 20260905030508 | 65 | 288 | 11.0 | 24.0 | 0.00 | 0.23 | 0.21 | 52 | 1003.3 |
| 20260905030009 | 65 | 282 | 10.0 | 26.0 | 0.00 | 0.23 | 0.21 | 53 | 1003.4 |
| 20260905025508 | 65 | 295 | 11.0 | 26.0 | 0.00 | 0.23 | 0.21 | 54 | 1003.5 |
| 20260905025008 | 64 | 285 | 9.0 | 19.0 | 0.00 | 0.23 | 0.21 | 60 | 1003.5 |
| 20260905024508 | 64 | 327 | 7.0 | 20.0 | 0.00 | 0.23 | 0.21 | 62 | 1003.5 |
| 20260905024007 | 63 | 265 | 11.0 | 20.0 | 0.00 | 0.23 | 0.21 | 63 | 1003.4 |
| 20260905023507 | 62 | 261 | 6.0 | 16.0 | 0.00 | 0.23 | 0.21 | 66 | 1003.5 |
| 20260905023016 | 62 | 259 | 6.0 | 14.0 | 0.00 | 0.23 | 0.21 | 68 | 1003.5 |
| 20260905022506 | 62 | 307 | 5.0 | 16.0 | 0.00 | 0.23 | 0.21 | 69 | 1003.5 |
| 20260905022006 | 61 | 329 | 8.0 | 15.0 | 0.00 | 0.23 | 0.21 | 70 | 1003.4 |
| 20260905021615 | 61 | 256 | 7.0 | 15.0 | 0.00 | 0.23 | 0.21 | 70 | 1003.6 |
| 20260905021006 | 62 | 296 | 6.0 | 15.0 | 0.00 | 0.23 | 0.21 | 69 | 1003.7 |
| 20260905020507 | 63 | 257 | 7.0 | 15.0 | 0.00 | 0.23 | 0.21 | 67 | 1003.8 |
| 20260905020007 | 64 | 244 | 7.0 | 17.0 | 0.00 | 0.23 | 0.21 | 63 | 1003.8 |
| 20260905015506 | 65 | 272 | 9.0 | 17.0 | 0.00 | 0.23 | 0.21 | 58 | 1003.7 |
| 20260905015006 | 66 | 285 | 10.0 | 20.0 | 0.00 | 0.23 | 0.21 | 55 | 1003.8 |
| 20260905014506 | 65 | 272 | 9.0 | 24.0 | 0.00 | 0.23 | 0.21 | 55 | 1003.7 |
| 20260905014002 | 65 | 288 | 13.0 | 25.0 | 0.00 | 0.23 | 0.21 | 55 | 1003.6 |
| 20260905013502 | 65 | 265 | 13.0 | 28.0 | 0.01 | 0.23 | 0.21 | 55 | 1003.4 |
| 20260905013120 | 65 | 340 | 15.0 | 28.0 | 0.01 | 0.23 | 0.21 | 55 | 1003.6 |
| 20260905012559 | 64 | 329 | 12.0 | 22.0 | 0.01 | 0.23 | 0.21 | 57 | 1003.4 |
| 20260905012058 | 64 | 298 | 11.0 | 25.0 | 0.01 | 0.23 | 0.21 | 57 | 1003.5 |
| 20260905011607 | 64 | 288 | 12.0 | 24.0 | 0.01 | 0.23 | 0.21 | 59 | 1003.6 |
| 20260905011058 | 64 | 281 | 12.0 | 24.0 | 0.01 | 0.23 | 0.21 | 59 | 1003.6 |
| 20260905010558 | 64 | 295 | 12.0 | 26.0 | 0.01 | 0.23 | 0.21 | 59 | 1003.6 |
| 20260905010100 | 64 | 321 | 11.0 | 25.0 | 0.01 | 0.23 | 0.21 | 61 | 1003.7 |
| 20260905005555 | 63 | 304 | 11.0 | 25.0 | 0.01 | 0.23 | 0.21 | 61 | 1003.5 |
| 20260905005055 | 63 | 321 | 11.0 | 24.0 | 0.01 | 0.23 | 0.21 | 62 | 1003.5 |
| 20260905004555 | 63 | 255 | 12.0 | 24.0 | 0.01 | 0.23 | 0.21 | 63 | 1003.6 |
| 20260905004052 | 63 | 334 | 12.0 | 34.0 | 0.01 | 0.23 | 0.21 | 63 | 1003.4 |
| 20260905003551 | 62 | 296 | 13.0 | 34.0 | 0.01 | 0.23 | 0.21 | 63 | 1003.4 |
| 20260905003050 | 62 | 279 | 9.0 | 19.0 | 0.00 | 0.22 | 0.20 | 64 | 1003.6 |
| 20260905002548 | 62 | 281 | 9.0 | 25.0 | 0.00 | 0.22 | 0.20 | 65 | 1003.6 |
| 20260905002047 | 61 | 267 | 11.0 | 25.0 | 0.00 | 0.22 | 0.20 | 65 | 1003.8 |
| 20260905001549 | 61 | 303 | 10.0 | 23.0 | 0.00 | 0.22 | 0.20 | 66 | 1004.0 |
| 20260905001041 | 61 | 263 | 10.0 | 23.0 | 0.00 | 0.22 | 0.20 | 66 | 1004.0 |
| 20260905000539 | 61 | 266 | 12.0 | 26.0 | 0.00 | 0.22 | 0.20 | 67 | 1004.0 |
| 20260905000039 | 61 | 279 | 13.0 | 26.0 | 0.00 | 0.22 | 0.20 | 68 | 1003.9 |
| 20260904235538 | 61 | 319 | 9.0 | 23.0 | 0.00 | 0.22 | 0.20 | 68 | 1003.9 |
| 20260904235037 | 62 | 288 | 13.0 | 24.0 | 0.00 | 0.22 | 0.20 | 69 | 1003.9 |
| 20260904234540 | 61 | 286 | 12.0 | 24.0 | 0.00 | 0.22 | 0.20 | 69 | 1003.7 |
| 20260904234035 | 61 | 275 | 9.0 | 28.0 | 0.00 | 0.22 | 0.20 | 69 | 1003.6 |
| 20260904233536 | 61 | 341 | 12.0 | 26.0 | 0.00 | 0.22 | 0.20 | 71 | 1003.7 |
| 20260904233032 | 61 | 301 | 10.0 | 23.0 | 0.00 | 0.22 | 0.20 | 73 | 1003.7 |
| 20260904232531 | 61 | 351 | 6.0 | 16.0 | 0.00 | 0.22 | 0.20 | 75 | 1003.7 |
| 20260904232030 | 60 | 355 | 9.0 | 16.0 | 0.00 | 0.22 | 0.20 | 76 | 1003.8 |
| 20260904231529 | 60 | 321 | 10.0 | 19.0 | 0.00 | 0.22 | 0.20 | 78 | 1003.9 |
| 20260904231029 | 60 | 313 | 11.0 | 19.0 | 0.00 | 0.22 | 0.20 | 78 | 1003.9 |
| 20260904230530 | 60 | 319 | 6.0 | 15.0 | 0.00 | 0.22 | 0.20 | 79 | 1003.8 |
| 20260904230042 | 59 | 336 | 7.0 | 17.0 | 0.00 | 0.22 | 0.20 | 79 | 1003.9 |
| 20260904225528 | 59 | 315 | 6.0 | 16.0 | 0.00 | 0.22 | 0.20 | 80 | 1003.8 |
| 20260904225026 | 59 | 294 | 8.0 | 17.0 | 0.00 | 0.22 | 0.20 | 81 | 1003.9 |
| 20260904224525 | 59 | 294 | 9.0 | 17.0 | 0.00 | 0.22 | 0.20 | 81 | 1003.8 |
| 20260904224025 | 59 | 344 | 7.0 | 18.0 | 0.00 | 0.22 | 0.20 | 82 | 1004.0 |
| 20260904223524 | 58 | 300 | 5.0 | 16.0 | 0.00 | 0.22 | 0.20 | 82 | 1003.9 |
| 20260904223023 | 58 | 281 | 7.0 | 20.0 | 0.00 | 0.22 | 0.20 | 82 | 1003.9 |
| 20260904222526 | 58 | 329 | 7.0 | 18.0 | 0.00 | 0.22 | 0.20 | 83 | 1003.7 |
| 20260904222022 | 58 | 223 | 8.0 | 18.0 | 0.00 | 0.22 | 0.20 | 83 | 1003.6 |
| 20260904221522 | 57 | 346 | 10.0 | 16.0 | 0.00 | 0.22 | 0.20 | 84 | 1003.6 |
| 20260904221030 | 57 | 325 | 9.0 | 16.0 | 0.00 | 0.22 | 0.20 | 85 | 1003.6 |
| 20260904220529 | 57 | 336 | 7.0 | 15.0 | 0.00 | 0.22 | 0.20 | 85 | 1003.6 |
| 20260904220034 | 57 | 347 | 8.0 | 15.0 | 0.00 | 0.22 | 0.20 | 86 | 1003.6 |
| 20260904215528 | 57 | 355 | 4.0 | 18.0 | 0.00 | 0.22 | 0.20 | 86 | 1003.6 |
| 20260904215031 | 57 | 336 | 8.0 | 18.0 | 0.00 | 0.22 | 0.20 | 87 | 1003.9 |
| 20260904214527 | 56 | 5 | 7.0 | 15.0 | 0.00 | 0.22 | 0.20 | 88 | 1004.1 |
| 20260904214026 | 56 | 360 | 5.0 | 14.0 | 0.00 | 0.22 | 0.20 | 88 | 1004.0 |
| 20260904213525 | 56 | 315 | 4.0 | 17.0 | 0.01 | 0.22 | 0.20 | 89 | 1004.0 |
| 20260904213031 | 56 | 317 | 6.0 | 17.0 | 0.02 | 0.22 | 0.20 | 89 | 1003.7 |
| 20260904212525 | 56 | 324 | 5.0 | 14.0 | 0.02 | 0.22 | 0.20 | 90 | 1003.9 |
| 20260904212024 | 55 | 315 | 6.0 | 18.0 | 0.02 | 0.22 | 0.20 | 90 | 1003.7 |
| 20260904211523 | 55 | 15 | 8.0 | 14.0 | 0.02 | 0.22 | 0.20 | 90 | 1003.6 |
| 20260904211019 | 55 | 303 | 7.0 | 14.0 | 0.02 | 0.22 | 0.20 | 90 | 1003.7 |
| 20260904210517 | 55 | 342 | 4.0 | 12.0 | 0.03 | 0.22 | 0.20 | 90 | 1003.5 |
| 20260904210017 | 55 | 336 | 5.0 | 14.0 | 0.04 | 0.22 | 0.20 | 90 | 1003.4 |
| 20260904205516 | 55 | 11 | 6.0 | 14.0 | 0.05 | 0.22 | 0.20 | 90 | 1003.5 |
| 20260904205014 | 55 | 360 | 7.0 | 14.0 | 0.06 | 0.22 | 0.20 | 90 | 1004.1 |
| 20260904204513 | 55 | 355 | 5.0 | 15.0 | 0.06 | 0.22 | 0.20 | 90 | 1004.1 |
| 20260904204012 | 55 | 36 | 5.0 | 14.0 | 0.06 | 0.22 | 0.20 | 90 | 1004.3 |
| 20260904203512 | 55 | 5 | 6.0 | 14.0 | 0.05 | 0.21 | 0.20 | 90 | 1004.5 |
| 20260904203011 | 55 | 32 | 5.0 | 11.0 | 0.05 | 0.21 | 0.20 | 90 | 1004.9 |
| 20260904202509 | 56 | 9 | 4.0 | 11.0 | 0.05 | 0.20 | 0.19 | 90 | 1005.2 |
| 20260904202009 | 56 | 355 | 5.0 | 11.0 | 0.05 | 0.20 | 0.19 | 90 | 1005.4 |
| 20260904201509 | 56 | 348 | 4.0 | 12.0 | 0.04 | 0.20 | 0.18 | 89 | 1005.5 |
| 20260904201007 | 56 | 11 | 5.0 | 12.0 | 0.04 | 0.20 | 0.18 | 89 | 1005.5 |
| 20260904200509 | 56 | 337 | 5.0 | 9.0 | 0.04 | 0.20 | 0.18 | 89 | 1005.8 |
| 20260904200021 | 56 | 23 | 2.0 | 10.0 | 0.03 | 0.19 | 0.17 | 89 | 1005.9 |
| 20260904195510 | 56 | 332 | 4.0 | 10.0 | 0.03 | 0.18 | 0.17 | 89 | 1006.0 |
| 20260904195007 | 56 | 307 | 4.0 | 10.0 | 0.02 | 0.17 | 0.15 | 89 | 1005.9 |
| 20260904194506 | 56 | 336 | 3.0 | 11.0 | 0.02 | 0.17 | 0.15 | 88 | 1005.8 |
| 20260904194009 | 56 | 334 | 3.0 | 11.0 | 0.02 | 0.17 | 0.15 | 88 | 1005.4 |
| 20260904193506 | 56 | 346 | 3.0 | 9.0 | 0.02 | 0.17 | 0.15 | 88 | 1005.5 |
| 20260904193108 | 56 | 355 | 1.0 | 8.0 | 0.02 | 0.17 | 0.15 | 88 | 1005.4 |
| 20260904192505 | 56 | 298 | 3.0 | 8.0 | 0.02 | 0.16 | 0.14 | 88 | 1005.6 |
| 20260904192004 | 56 | 321 | 2.0 | 9.0 | 0.02 | 0.16 | 0.14 | 88 | 1005.6 |
| 20260904191507 | 56 | 360 | 2.0 | 9.0 | 0.02 | 0.16 | 0.14 | 87 | 1005.1 |
| 20260904191009 | 56 | 319 | 2.0 | 9.0 | 0.02 | 0.16 | 0.14 | 87 | 1005.1 |
| 20260904190508 | 56 | 19 | 1.0 | 10.0 | 0.02 | 0.16 | 0.14 | 87 | 1005.5 |
| 20260904190011 | 56 | 360 | 4.0 | 11.0 | 0.02 | 0.16 | 0.14 | 87 | 1005.7 |
| 20260904185509 | 56 | 331 | 3.0 | 11.0 | 0.02 | 0.15 | 0.13 | 87 | 1005.9 |
| 20260904185008 | 56 | 28 | 4.0 | 14.0 | 0.02 | 0.14 | 0.13 | 87 | 1006.1 |
| 20260904184509 | 56 | 355 | 5.0 | 14.0 | 0.05 | 0.14 | 0.13 | 87 | 1006.2 |
| 20260904184009 | 56 | 30 | 6.0 | 17.0 | 0.06 | 0.14 | 0.13 | 87 | 1006.2 |
| 20260904183506 | 56 | 334 | 6.0 | 14.0 | 0.06 | 0.14 | 0.13 | 87 | 1006.0 |
| 20260904183006 | 56 | 336 | 6.0 | 17.0 | 0.06 | 0.14 | 0.13 | 87 | 1006.0 |
| 20260904182505 | 56 | 329 | 6.0 | 17.0 | 0.06 | 0.14 | 0.13 | 86 | 1006.1 |
| 20260904182006 | 56 | 338 | 7.0 | 16.0 | 0.06 | 0.14 | 0.13 | 86 | 1006.1 |
| 20260904181505 | 56 | 5 | 4.0 | 11.0 | 0.06 | 0.14 | 0.13 | 86 | 1006.2 |
| 20260904180601 | 57 | 348 | 5.0 | 21.0 | 0.06 | 0.13 | 0.12 | 85 | 1006.2 |
| 20260904180059 | 57 | 307 | 9.0 | 21.0 | 0.06 | 0.13 | 0.12 | 85 | 1006.5 |
| 20260904175558 | 57 | 321 | 7.0 | 22.0 | 0.06 | 0.13 | 0.12 | 85 | 1006.4 |
| 20260904175058 | 57 | 5 | 8.0 | 22.0 | 0.05 | 0.13 | 0.11 | 84 | 1006.7 |
| 20260904174602 | 57 | 31 | 11.0 | 19.0 | 0.05 | 0.13 | 0.11 | 84 | 1006.7 |
| 20260904174055 | 57 | 318 | 9.0 | 19.0 | 0.01 | 0.09 | 0.07 | 83 | 1006.8 |
| 20260904173555 | 57 | 328 | 9.0 | 17.0 | 0.01 | 0.08 | 0.06 | 84 | 1006.4 |
| 20260904173055 | 57 | 345 | 6.0 | 13.0 | 0.02 | 0.08 | 0.06 | 84 | 1006.0 |
| 20260904172554 | 57 | 42 | 3.0 | 12.0 | 0.02 | 0.08 | 0.06 | 84 | 1005.7 |
| 20260904172054 | 57 | 339 | 6.0 | 12.0 | 0.02 | 0.08 | 0.06 | 85 | 1005.7 |
| 20260904171616 | 57 | 334 | 7.0 | 16.0 | 0.02 | 0.08 | 0.06 | 85 | 1005.6 |
| 20260904170556 | 57 | 338 | 5.0 | 17.0 | 0.02 | 0.08 | 0.06 | 85 | 1006.2 |
| 20260904170055 | 57 | 292 | 8.0 | 17.0 | 0.02 | 0.08 | 0.06 | 86 | 1006.7 |
| 20260904165554 | 57 | 344 | 8.0 | 16.0 | 0.02 | 0.08 | 0.06 | 86 | 1006.9 |
| 20260904165054 | 57 | 350 | 4.0 | 14.0 | 0.02 | 0.08 | 0.06 | 86 | 1006.9 |
| 20260904164552 | 57 | 5 | 8.0 | 14.0 | 0.02 | 0.08 | 0.06 | 86 | 1007.1 |
| 20260904164051 | 57 | 307 | 6.0 | 15.0 | 0.03 | 0.08 | 0.06 | 86 | 1007.4 |
| 20260904163550 | 57 | 322 | 5.0 | 19.0 | 0.03 | 0.07 | 0.06 | 85 | 1007.6 |
| 20260904163055 | 57 | 327 | 8.0 | 20.0 | 0.03 | 0.07 | 0.06 | 85 | 1007.9 |
| 20260904162550 | 57 | 333 | 9.0 | 20.0 | 0.02 | 0.06 | 0.05 | 85 | 1008.2 |
| 20260904162050 | 57 | 360 | 9.0 | 26.0 | 0.02 | 0.06 | 0.05 | 85 | 1008.1 |
| 20260904161556 | 57 | 338 | 11.0 | 20.0 | 0.02 | 0.06 | 0.04 | 85 | 1007.7 |
| 20260904160545 | 57 | 351 | 11.0 | 21.0 | 0.02 | 0.06 | 0.04 | 86 | 1007.5 |
| 20260904160046 | 57 | 335 | 11.0 | 20.0 | 0.02 | 0.06 | 0.04 | 86 | 1007.5 |
| 20260904155546 | 57 | 16 | 9.0 | 20.0 | 0.03 | 0.06 | 0.04 | 86 | 1007.7 |
| 20260904155044 | 57 | 321 | 8.0 | 17.0 | 0.03 | 0.06 | 0.04 | 85 | 1007.8 |
| 20260904154541 | 57 | 11 | 6.0 | 20.0 | 0.03 | 0.06 | 0.04 | 85 | 1008.2 |
| 20260904154040 | 57 | 39 | 9.0 | 20.0 | 0.03 | 0.06 | 0.04 | 85 | 1008.4 |
| 20260904153539 | 57 | 325 | 8.0 | 15.0 | 0.02 | 0.04 | 0.02 | 84 | 1008.6 |
| 20260904153101 | 57 | 324 | 7.0 | 17.0 | 0.02 | 0.04 | 0.02 | 84 | 1008.7 |
| 20260904152538 | 57 | 14 | 6.0 | 17.0 | 0.02 | 0.04 | 0.02 | 83 | 1008.9 |
| 20260904152036 | 58 | 345 | 7.0 | 17.0 | 0.02 | 0.04 | 0.02 | 83 | 1009.1 |
| 20260904151539 | 58 | 9 | 8.0 | 24.0 | 0.02 | 0.03 | 0.02 | 82 | 1009.1 |
| 20260904150536 | 58 | 325 | 12.0 | 24.0 | 0.02 | 0.03 | 0.02 | 82 | 1009.3 |
| 20260904150037 | 58 | 303 | 10.0 | 30.0 | 0.02 | 0.03 | 0.02 | 81 | 1009.4 |
| 20260904145534 | 58 | 344 | 8.0 | 30.0 | 0.02 | 0.03 | 0.02 | 81 | 1009.2 |
| 20260904145033 | 58 | 43 | 12.0 | 24.0 | 0.01 | 0.02 | 0.01 | 81 | 1009.2 |
| 20260904144532 | 58 | 38 | 12.0 | 24.0 | 0.01 | 0.02 | 0.01 | 81 | 1009.0 |
| 20260904144031 | 58 | 16 | 11.0 | 26.0 | 0.01 | 0.02 | 0.01 | 81 | 1009.0 |
| 20260904143530 | 58 | 14 | 10.0 | 26.0 | 0.01 | 0.02 | 0.01 | 81 | 1009.0 |
| 20260904143030 | 58 | 332 | 10.0 | 22.0 | 0.02 | 0.02 | 0.01 | 80 | 1008.8 |
| 20260904142527 | 58 | 22 | 8.0 | 20.0 | 0.01 | 0.02 | 0.00 | 79 | 1009.1 |
| 20260904142028 | 58 | 46 | 8.0 | 20.0 | 0.01 | 0.02 | 0.00 | 79 | 1009.8 |
| 20260904141526 | 58 | 327 | 8.0 | 20.0 | 0.01 | 0.02 | 0.00 | 79 | 1010.0 |
| 20260904140526 | 58 | 340 | 8.0 | 20.0 | 0.01 | 0.02 | 0.00 | 79 | 1010.0 |
| 20260904140022 | 58 | 355 | 8.0 | 22.0 | 0.01 | 0.02 | 0.02 | 79 | 1010.2 |
| 20260904135522 | 58 | 331 | 10.0 | 22.0 | 0.01 | 0.02 | 0.02 | 79 | 1010.2 |
| 20260904135022 | 58 | 346 | 7.0 | 20.0 | 0.01 | 0.02 | 0.02 | 79 | 1010.2 |
| 20260904134525 | 58 | 348 | 9.0 | 16.0 | 0.01 | 0.02 | 0.02 | 79 | 1010.2 |
| 20260904134021 | 58 | 318 | 6.0 | 22.0 | 0.01 | 0.02 | 0.02 | 79 | 1010.2 |
| 20260904133523 | 58 | 303 | 6.0 | 22.0 | 0.01 | 0.02 | 0.02 | 79 | 1010.2 |
| 20260904133022 | 58 | 321 | 4.0 | 15.0 | 0.01 | 0.02 | 0.02 | 78 | 1010.3 |
| 20260904132526 | 58 | 310 | 9.0 | 21.0 | 0.00 | 0.01 | 0.01 | 78 | 1010.7 |
| 20260904132019 | 58 | 26 | 8.0 | 21.0 | 0.00 | 0.01 | 0.01 | 78 | 1010.9 |
| 20260904131520 | 58 | 335 | 5.0 | 15.0 | 0.00 | 0.01 | 0.01 | 79 | 1010.7 |
| 20260904130524 | 58 | 310 | 6.0 | 21.0 | 0.00 | 0.01 | 0.01 | 79 | 1010.7 |
| 20260904130020 | 58 | 52 | 8.0 | 21.0 | 0.00 | 0.01 | 0.01 | 80 | 1010.9 |
| 20260904125520 | 58 | 5 | 6.0 | 18.0 | 0.00 | 0.01 | 0.01 | 80 | 1011.1 |
| 20260904125022 | 58 | 5 | 6.0 | 15.0 | 0.00 | 0.01 | 0.01 | 80 | 1011.5 |
| 20260904124520 | 58 | 344 | 6.0 | 13.0 | 0.00 | 0.01 | 0.01 | 80 | 1011.5 |
| 20260904124022 | 58 | 13 | 1.0 | 14.0 | 0.00 | 0.01 | 0.01 | 80 | 1011.2 |
| 20260904123522 | 58 | 35 | 2.0 | 14.0 | 0.01 | 0.01 | 0.01 | 80 | 1011.1 |
| 20260904123020 | 58 | 57 | 3.0 | 15.0 | 0.01 | 0.01 | 0.01 | 80 | 1011.1 |
| 20260904122525 | 58 | 5 | 6.0 | 16.0 | 0.01 | 0.01 | 0.01 | 80 | 1011.2 |
| 20260904122021 | 57 | 23 | 4.0 | 11.0 | 0.01 | 0.01 | 0.01 | 80 | 1010.9 |
| 20260904121519 | 57 | 321 | 7.0 | 19.0 | 0.01 | 0.01 | 0.01 | 79 | 1010.9 |
| 20260904120521 | 57 | 327 | 10.0 | 21.0 | 0.01 | 0.01 | 0.01 | 79 | 1011.1 |
| 20260904120027 | 57 | 316 | 7.0 | 21.0 | 0.01 | 0.01 | 0.01 | 79 | 1011.1 |
| 20260904115520 | 57 | 35 | 5.0 | 18.0 | 0.01 | 0.01 | 0.01 | 79 | 1011.0 |
| 20260904115021 | 57 | 299 | 6.0 | 18.0 | 0.01 | 0.01 | 0.01 | 79 | 1011.0 |
| 20260904114519 | 58 | 40 | 3.0 | 13.0 | 0.01 | 0.01 | 0.01 | 78 | 1011.2 |
| 20260904114020 | 58 | 350 | 4.0 | 19.0 | 0.01 | 0.01 | 0.01 | 77 | 1011.2 |
| 20260904113519 | 58 | 348 | 5.0 | 19.0 | 0.01 | 0.01 | 0.01 | 76 | 1011.0 |
| 20260904113018 | 58 | 333 | 8.0 | 17.0 | 0.00 | 0.00 | 0.00 | 75 | 1011.6 |
| 20260904112516 | 58 | 57 | 5.0 | 12.0 | 0.00 | 0.00 | 0.00 | 75 | 1012.0 |
| 20260904112017 | 58 | 68 | 1.0 | 5.0 | 0.00 | 0.00 | 0.00 | 74 | 1012.1 |
| 20260904111521 | 58 | 65 | 1.0 | 5.0 | 0.00 | 0.00 | 0.00 | 74 | 1012.0 |
| 20260904110513 | 58 | 360 | 3.0 | 10.0 | 0.00 | 0.00 | 0.00 | 73 | 1012.4 |
| 20260904110013 | 58 | 58 | 4.0 | 15.0 | 0.00 | 0.00 | 0.00 | 73 | 1012.2 |
| 20260904105513 | 58 | 355 | 6.0 | 11.0 | 0.00 | 0.00 | 0.00 | 72 | 1012.3 |
| 20260904105012 | 58 | 62 | 1.0 | 6.0 | 0.00 | 0.00 | 0.00 | 72 | 1012.4 |
| 20260904104512 | 58 | 53 | 0.0 | 5.0 | 0.00 | 0.00 | 0.00 | 72 | 1012.5 |
| 20260904104014 | 58 | 22 | 2.0 | 5.0 | 0.00 | 0.00 | 0.00 | 72 | 1012.6 |
| 20260904103513 | 58 | 67 | 2.0 | 8.0 | 0.00 | 0.00 | 0.00 | 72 | 1012.6 |
| 20260904103010 | 58 | 54 | 1.0 | 10.0 | 0.00 | 0.00 | 0.00 | 71 | 1012.6 |
| 20260904102509 | 58 | 46 | 3.0 | 5.0 | 0.00 | 0.00 | 0.00 | 71 | 1012.7 |
| 20260904102009 | 58 | 42 | 2.0 | 5.0 | 0.00 | 0.00 | 0.00 | 71 | 1012.8 |
| 20260904101516 | 58 | 77 | 2.0 | 8.0 | 0.00 | 0.00 | 0.00 | 71 | 1012.8 |
| 20260904100510 | 58 | 14 | 3.0 | 8.0 | 0.00 | 0.00 | 0.00 | 70 | 1012.9 |
| 20260904100010 | 58 | 13 | 2.0 | 9.0 | 0.00 | 0.00 | 0.00 | 70 | 1012.9 |
| 20260904095510 | 58 | 5 | 2.0 | 9.0 | 0.00 | 0.00 | 0.00 | 70 | 1013.0 |
| 20260904095010 | 58 | 26 | 4.0 | 11.0 | 0.00 | 0.00 | 0.00 | 70 | 1012.8 |
| 20260904094508 | 58 | 17 | 2.0 | 6.0 | 0.00 | 0.00 | 0.00 | 70 | 1012.8 |
| 20260904094007 | 58 | 32 | 2.0 | 6.0 | 0.00 | 0.00 | 0.00 | 70 | 1012.9 |
| 20260904093508 | 58 | 32 | 1.0 | 13.0 | 0.00 | 0.00 | 0.00 | 70 | 1012.9 |
| 20260904093007 | 58 | 11 | 6.0 | 13.0 | 0.00 | 0.00 | 0.00 | 70 | 1012.9 |
| 20260904092508 | 58 | 355 | 4.0 | 10.0 | 0.00 | 0.00 | 0.00 | 70 | 1013.1 |
| 20260904092008 | 58 | 325 | 4.0 | 13.0 | 0.00 | 0.00 | 0.00 | 70 | 1013.1 |
| 20260904091508 | 58 | 344 | 1.0 | 5.0 | 0.00 | 0.00 | 0.00 | 69 | 1013.0 |
| 20260904090513 | 58 | 60 | 2.0 | 4.0 | 0.00 | 0.00 | 0.00 | 69 | 1013.1 |
| 20260904090011 | 58 | 172 | 0.0 | 4.0 | 0.00 | 0.00 | 0.00 | 69 | 1012.8 |
| 20260904085509 | 58 | 104 | 0.0 | 4.0 | 0.00 | 0.00 | 0.00 | 69 | 1012.9 |
| 20260904085008 | 58 | 100 | 1.0 | 4.0 | 0.00 | 0.00 | 0.00 | 69 | 1012.9 |
| 20260904084508 | 58 | 82 | 1.0 | 4.0 | 0.00 | 0.00 | 0.00 | 68 | 1012.9 |
| 20260904084009 | 58 | 329 | 1.0 | 5.0 | 0.00 | 0.00 | 0.00 | 68 | 1012.9 |
| 20260904083507 | 58 | 61 | 2.0 | 6.0 | 0.00 | 0.00 | 0.00 | 68 | 1013.1 |